Location: Beadle
(51.4667°N, 109.0000°W)
Time: 05:22:40
(UTC+00:00)

Altair - Pass Details

Date: 29 May 2022
Orbit: 1501 x 1682 km, 47.2° (Epoch: 30 June)

Event Time Altitude Azimuth Distance (km) Brightness Sun altitude
Rises 01:55:39 0° 265° (W) 4,881 11.4 10.5°
Reaches altitude 10° 01:58:47 10° 264° (W) 3,910 10.9 10.0°
Maximum altitude 02:08:47 71° 183° (S) 1,764 7.9 8.6°
Drops below altitude 10° 02:18:51 10° 103° (ESE) 3,938 9.1 7.2°
Sets 02:22:01 0° 101° (E) 4,916 9.5 6.7°
